Location: Berg
(48.4333°N, 13.9167°E)
Time: 08:37:40
(UTC+00:00)

ERS-1 Rocket - Pass Details

Date: 18 September 2020
Orbit: 753 x 757 km, 98.5° (Epoch: 24 October)

Event Time Altitude Azimuth Distance (km) Brightness Sun altitude
Exits shadow 20:57:24 38° 325° (NW) 1,149 4.2 -33.7°
Drops below altitude 10° 21:00:35 10° 340° (NNW) 2,295 6.2 -34.0°
Sets 21:02:55 0° 344° (NNW) 3,225 7.2 -34.2°
